This is the latest recevied weather packets stored in our database for station/object OK1FPA-13. If no packets are shown the sender has not sent any weather packets the latest 10 day(s).
| Time | Temp. | Humidity | Pressure | Rain* | Wind** | Luminosity | Snow |
|---|---|---|---|---|---|---|---|
| 1777827874 | 22.78° C | 29% | 1012.2 hPa | - | - | - | - |
| 1777827274 | 22.78° C | 29% | 1012.2 hPa | - | - | - | - |
| 1777826674 | 22.78° C | 29% | 1012.2 hPa | - | - | - | - |
| 1777826074 | 23.33° C | 28% | 1012.2 hPa | - | - | - | - |
| 1777825474 | 23.89° C | 27% | 1012.3 hPa | - | - | - | - |
| 1777824874 | 23.89° C | 27% | 1012.3 hPa | - | - | - | - |
| 1777824274 | 24.44° C | 26% | 1012.2 hPa | - | - | - | - |
| 1777823674 | 24.44° C | 26% | 1012.2 hPa | - | - | - | - |
| 1777823074 | 25° C | 26% | 1012.3 hPa | - | - | - | - |
| 1777822474 | 25° C | 25% | 1012.3 hPa | - | - | - | - |
| 1777821874 | 25.56° C | 24% | 1012.4 hPa | - | - | - | - |
| 1777821274 | 26.11° C | 25% | 1012.4 hPa | - | - | - | - |
| 1777820681 | 26.11° C | 24% | 1012.5 hPa | - | - | - | - |
| 1777820074 | 26.11° C | 24% | 1012.6 hPa | - | - | - | - |
| 1777819474 | 26.11° C | 24% | 1012.7 hPa | - | - | - | - |
| 1777818874 | 26.67° C | 23% | 1012.8 hPa | - | - | - | - |
| 1777818274 | 26.11° C | 25% | 1012.9 hPa | - | - | - | - |
| 1777817674 | 26.11° C | 25% | 1013 hPa | - | - | - | - |
| 1777817074 | 26.11° C | 25% | 1013.2 hPa | - | - | - | - |
| 1777816474 | 27.22° C | 24% | 1013.1 hPa | - | - | - | - |
| 1777815874 | 26.67° C | 25% | 1013.3 hPa | - | - | - | - |
| 1777815274 | 26.11° C | 24% | 1013.4 hPa | - | - | - | - |
| 1777814676 | 26.11° C | 24% | 1013.7 hPa | - | - | - | - |
| 1777814071 | 26.11° C | 24% | 1013.7 hPa | - | - | - | - |
| 1777813471 | 26.11° C | 25% | 1013.8 hPa | - | - | - | - |
* Rain since midnight (hover to see other rain measurements)
** Current wind speed in m/s (hover to see current wind gust speed)